Simultaneous Nadir Overpasses (SNOs) Predictions

Prediction of SNOs between GOES-17 and NPP Satellite Orbit:

Table of predicted SNOs for the next 14.0 days since TLE Epoch: 3/7/2025
Index Date Time (GOES-17) GOES-17 Lat,Lon NPP Lat,Lon Distance(km) Time Diff (sec)
1 03/08/2025 20:27:45 0.01,-104.41 -0.32,-105.83 161.79 80
2 03/09/2025 20:11:40 0.01,-104.41 0.71,-101.30 355.27 80
3 03/11/2025 08:33:26 -0.01,-104.39 0.45,-106.56 246.64 80
4 03/12/2025 08:12:00 -0.01,-104.39 -0.53,-102.01 270.79 80
5 03/13/2025 20:33:54 0.01,-104.42 -0.65,-107.31 329.24 80
6 03/14/2025 20:17:48 0.01,-104.43 0.40,-102.78 188.51 80
7 03/16/2025 08:39:34 -0.01,-104.41 0.81,-108.03 412.46 80
8 03/17/2025 08:18:08 -0.01,-104.41 -0.24,-103.50 105.25 80
9 03/18/2025 20:40:02 0.01,-104.44 -0.99,-108.78 494.92 80
10 03/19/2025 20:23:56 0.01,-104.44 0.06,-104.24 22.67 80
